STARLINK-4728, 53793

Orbit data source: Space-Track

STARLINK-4728, 53793 is a payload satellite owned by SpaceX/Seattle (US) in LEO that was launched on Sun, 11 Sep 2022 UTC via an FALCON 9 launch vehicle from the Air Force Eastern Test Range (AFETR). Payload-class satellites include a variety of spacecraft equipped with specific instruments for various scientific and technological missions. These include communications satellites like Starlink; space stations such as the ISS; scientific satellites like the Hubble; Earth observation satellites from companies like Planet Labs, Umbra, and HawkEye 360; GPS; miniature CubeSats for education and research; and military/defense satellites.

Loading next visibility...
Identifier
53793, 2022-111W
Orbit
LEO
Country
Flag of USUS
Related business
Manufacturer
SpaceX/Seattle
Mission
Operational Commercial Communications
Bus & Motor
STARLINK, Unknown motor
Mass
305 kg wet, ~290 kg dry
Launch date (UTC)
2022-09-11 (3 years ago)
Launch vehicle
FALCON 9
Launch site
Air Force Eastern Test Range (AFETR)
Object type
Payload
Rocket body
Debris
Shape & HBR
Box + 1 Pan, 10.1 m
Radar Cross Section
13.562 m², Large (>1 m²)

Expand to show TLE details & history
Last TLE update: 16 hours ago

TLE from 16 hours ago
0 STARLINK-4728
1 53793U 22111W   25341.24951186  .00011787  00000-0  75688-3 0  9996
2 53793  53.2183 328.9009 0001332  96.8315 263.2829 15.08865381179737
Epoch: 2025-12-07T05:59Z
TLE epoch observation values (Epoch: 2025-12-07T05:59:17.824Z)
Latitude
-0.00001°
Longitude
162.81102°
Altitude
540.671 km
Speed
7.593 km/s
True Right ascension
21h 55m 36s
True Declination
0° 00' 00"
Sunlit
Object was in daylight at epoch
Visualization orbit readout
Latitude
Unknown
Longitude
Unknown
Altitude
Unknown
Speed
Unknown
Apparent Right ascension
Unknown
Apparent Declination
Unknown
Sunlit
N/A
Visualization observer readout
Local Sidereal Time
19:46:04
Azimuth
Unknown
Elevation
Unknown
Doppler factor
Unknown
Orbital elements
Apogee altitude
540.832 km
Perigee altitude
538.989 km
Semi-major axis
6,918.048 km
Eccentricity
0.00013
Inclination
53.2183°
RAAN
328.9009°
Arg. of periapsis
96.8315°
True anomaly
263.26774°
Mean anomaly
263.2829°
Eccentric anomaly
263.27532°
Mean motion
3.77197 °/min
Orbital period
95.44 mins
BSTAR
0.00075688
Loading maneuver chart data...
Computing Atmospheric mass density...
Loading historical data...
Loading historical data...
Loading historical data...
Loading historical data...
Loading historical data...
Loading historical data...
Loading historical data...

Documentation

Showing up to 5 results
|